St. Johns, AZ

11:10 PM MST on October 20, 2019 (GMT -0700)
Saint Johns Industrial

Weather History for KSJN - August, 2019

Change the Weather History Date:

Saturday, August 3, 2019

  Actual Average (KLSB) Record (KLSB)
Temperature  
Mean Temperature 69 °F -  
Max Temperature 84 °F 94 °F 95 °F (2015)
Min Temperature 54 °F 64 °F 62 °F (2014)
Cooling Degree Days 4    
Growing Degree Days 19 (Base 50)    
Moisture  
Dew Point 53 °F    
Average Humidity 50    
Maximum Humidity 82    
Minimum Humidity 19    
Precipitation  
Precipitation 0.08 in - - ()
Sea Level Pressure  
Sea Level Pressure 29.96 in    
Wind  
Wind Speed 5 mph (SE)    
Max Wind Speed 31 mph    
Max Gust Speed 37 mph    
Visibility 10 miles    
Events      
Averages and records for this station are not official NWS values.
T = Trace of Precipitation, MM = Missing Value Source: NWS Daily Summary

Daily Weather History Graph

Daily Weather History Graph

Search for Another Location

Airport or City:

Astronomy

Aug. 03, 2019 Rise Set
Actual Time 5:29 AM MST 7:17 PM MST
Civil Twilight 5:01 AM MST 7:45 PM MST
Nautical Twilight 4:28 AM MST 8:18 PM MST
Astronomical Twilight 3:53 AM MST 8:53 PM MST
Moon 8:20 AM MST (8/3) 9:32 PM MST (8/3)
Length of Visible Light 14h 43m
Length of Day
13h 48m
Waxing Crescent, 10% of the Moon is Illuminated
Aug 3
Waxing Crescent
Aug 7
First Quarter
Aug 15
Full
Aug 23
Last Quarter
Aug 30
New

Hourly Weather History & Observations

Time (MST) Temp. Heat Index Dew Point Humidity Pressure Visibility Wind Dir Wind Speed Gust Speed Precip Events Conditions
12:54 AM 68.0 °F - 57.0 °F 68% 29.93 in 10.0 mi Calm Calm - N/A   Clear
1:54 AM 66.9 °F - 57.0 °F 70% 29.93 in 10.0 mi Calm Calm - N/A   Clear
2:54 AM 64.9 °F - 57.0 °F 75% 29.94 in 10.0 mi South 4.6 mph - N/A   Clear
3:54 AM 64.9 °F - 55.9 °F 73% 29.94 in 10.0 mi South 6.9 mph - N/A   Clear
4:54 AM 64.9 °F - 54.0 °F 68% 29.94 in 10.0 mi South 5.8 mph - N/A   Clear
5:54 AM 64.0 °F - 54.0 °F 70% 29.97 in 10.0 mi South 5.8 mph - N/A   Clear
6:54 AM 66.9 °F - 55.0 °F 66% 29.98 in 10.0 mi SSE 4.6 mph - N/A   Clear
7:54 AM 73.0 °F - 55.0 °F 53% 29.98 in 10.0 mi ENE 4.6 mph - N/A   Clear
8:54 AM 80.1 °F 80.1 °F 55.0 °F 42% 29.96 in 10.0 mi Variable 4.6 mph - N/A   Clear
9:54 AM 84.0 °F 82.6 °F 54.0 °F 35% 29.93 in 10.0 mi Calm Calm - N/A   Clear
10:54 AM 88.0 °F - 52.0 °F 29% 29.91 in 10.0 mi Variable 3.5 mph - N/A   Clear
11:54 AM 89.1 °F - 50.0 °F 26% 29.90 in 10.0 mi Variable 3.5 mph - N/A   Clear
12:54 PM 89.1 °F - 48.0 °F 24% 29.88 in 10.0 mi West 8.1 mph - N/A   Clear
1:54 PM 88.0 °F - 48.9 °F 26% 29.88 in 10.0 mi Calm Calm - N/A   Clear
2:54 PM 87.1 °F - 51.1 °F 29% 29.88 in 10.0 mi WSW 12.7 mph 20.7 mph N/A   Clear
3:54 PM 86.0 °F - 48.9 °F 28% 29.87 in 10.0 mi SW 11.5 mph - N/A   Clear
4:37 PM 79.0 °F - 54.0 °F 42% 30.20 in 10.0 mi NNE 31.1 mph 36.8 mph N/A   Mostly Cloudy
4:54 PM 81.0 °F 80.5 °F 54.0 °F 39% 29.92 in 10.0 mi NE 25.3 mph 36.8 mph N/A   Mostly Cloudy
5:54 PM 80.1 °F - 51.1 °F 36% 29.93 in 10.0 mi ENE 15.0 mph - N/A   Clear
6:54 PM 78.1 °F - 50.0 °F 37% 29.93 in 10.0 mi East 3.5 mph - N/A   Clear
7:54 PM 75.0 °F - 52.0 °F 44% 29.94 in 10.0 mi WNW 4.6 mph - N/A   Clear
8:54 PM 71.1 °F - 54.0 °F 55% 29.96 in 10.0 mi WNW 3.5 mph - N/A   Clear
9:54 PM 70.0 °F - 54.0 °F 57% 29.97 in 10.0 mi East 6.9 mph - N/A   Partly Cloudy
10:54 PM 71.1 °F - 53.1 °F 53% 29.96 in 10.0 mi ENE 5.8 mph - N/A   Clear
11:54 PM 69.1 °F - 54.0 °F 58% 29.96 in 10.0 mi East 5.8 mph - N/A   Clear